Regional Weather Roundup
Issued by NWS

Home | Current Version | Previous Version | Text Only | Print | Product List | Glossary Off
Versions: 1 2 3 4 5 6 7 8 9 10 11 12 13 14 15 16 17 18 19 20 21 22 23 24 25 26 27 28

000
ASUS45 KBOU 210010
RWRCO

WEATHER ROUNDUP FOR COLORADO
NATIONAL WEATHER SERVICE DENVER/BOULDER CO
500 PM MST MON NOV 20 2017

NOTE: "FAIR" INDICATES FEW OR NO CLOUDS BELOW 12000 FEET WITH NO
SIGNIFICANT WEATHER AND/OR OBSTRUCTIONS TO VISIBILITY.

COZ001>005-013-030-031-210100-
...NORTHWEST COLORADO...

CITY           SKY/WX    TMP DP  RH WIND       PRES   REMARKS
CRAIG          FAIR      35  26  69 CALM      30.05F
HAYDEN         CLOUDY    35  24  64 CALM      30.07F
MEEKER         CLOUDY    42  19  39 CALM      30.06F
RABBIT EARS PA MOCLDY    27   9  46 W10G21    30.12F WCI  17
STEAMBOAT SPGS CLOUDY    35  19  53 CALM      30.07F
WALDEN         CLOUDY    37   9  30 S12G18    30.04F
$$

COZ006>008-011-210100-
...WEST CENTRAL VALLEYS...

CITY           SKY/WX    TMP DP  RH WIND       PRES   REMARKS
GRAND JUNCTION CLOUDY    41  20  43 W3        30.15S
MONTROSE       FAIR      38  18  44 CALM      30.17R
EAGLE          CLOUDY    38  22  52 E6        30.12S
RIFLE          CLOUDY    39  19  44 CALM      30.14S
DELTA          FAIR      41  19  40 CALM      30.17R
NUCLA          FAIR      45   9  23 CALM      30.18R
$$

COZ017>023-064>068-210100-
...SOUTHWEST COLORADO...

CITY           SKY/WX    TMP DP  RH WIND       PRES   REMARKS
DURANGO        FAIR      44  11  26 SE3       30.12R
CORTEZ         FAIR      44   9  23 CALM      30.14S
PAGOSA SPRINGS FAIR      40  11  30 CALM      30.15R
TELLURIDE      CLOUDY    40   6  24 SW7       30.22R
WOLF CREEK PAS FAIR      30   7  37 W7        30.29R WCI  23
$$

COZ009-010-012-014-032>034-037-058>063-210100-
...CENTRAL COLORADO...

CITY           SKY/WX    TMP DP  RH WIND       PRES   REMARKS
ASPEN          FAIR      34  19  54 S3        30.13S
BUENA VISTA    FAIR      47   5  17 NW16G23   30.03R
COPPER MTN     FAIR      32   1  27 MISG      30.20S
BERTHOUD PASS  FAIR      21  10  63 NW31G41   30.14F WCI   3
COTTONWOOD PAS FAIR      46  -4  12 W40G55    30.03F
GUNNISON       FAIR      31  19  61 CALM      30.17S
KREMMLING      FAIR      45   3  18 W8        30.09R
LEADVILLE      MOCLDY    34   1  24 N3        30.14R
MONARCH PASS   FAIR      27   1  33 W41       30.27F WCI   8
SALIDA         FAIR      52  -1  11 W28G35    30.05S
SUNLIGHT       MOCLDY    28   3  34 SW15G23   30.22S WCI  17
WILKERSON PASS FAIR      32   3  29 NW12G26   30.14R WCI  23
$$

COZ069>075-210100-
...SAN LUIS VALLEY/SANGRE DE CRISTO MOUNTAINS...

CITY           SKY/WX    TMP DP  RH WIND       PRES   REMARKS
ALAMOSA        FAIR      44  -1  15 CALM      30.06S
DEL NORTE      FAIR      38   7  27 N3        30.09R
LA VETA PASS   FAIR      34   1  25 SW18G35     N/A  WCI  23
SAGUACHE       FAIR      45  -9  10 NW21G30   30.06F
$$

COZ035-036-038>040-210100-
...NORTHERN COLORADO FRONT RANGE...

CITY           SKY/WX    TMP DP  RH WIND       PRES   REMARKS
DENVER INTL AP MOCLDY    59   8  13 SE7       29.84R
DMNS CITY PARK   N/A     57   7  13 W5G13     29.85R
AURORA         MOCLDY    55  11  17 N12       29.86R
FRONT RANGE AP MOCLDY    55  12  18 E12       29.85R
ERIE MUNI ARPT FAIR      53  15  22 CALM      29.88R
BOULDER MUN AP FAIR      59  12  15 NW5       29.83R
CENTENNIAL     MOCLDY    58  13  17 NW13      29.86R
BROOMFIELD     MOCLDY    59   9  13 W30G43    29.85R
FORT COLLINS   FAIR      59  11  15 W20G30    29.80R
LONGMONT       FAIR      62   7  11 W9G28     29.85R
$$

COZ041-046-047-076>085-087-088-210100-
...PIKES PEAK/PALMER DIVIDE AND SOUTHERN FOOTHILLS...

CITY           SKY/WX    TMP DP  RH WIND       PRES   REMARKS
COLO. SPRINGS  MOCLDY    59  12  15 N15       29.88R
A. F. ACADEMY  FAIR      56   9  15 W18G26    29.88R
SCHRIEVER AFB  FAIR      58   9  14 NW20      29.88R
CHEYENNE MTN   FAIR      57  11  15 CALM      29.85R
ELLICOTT         N/A    N/A N/A N/A N5        29.86R
FALCON         FAIR      53  10  18 NW9G22    29.93R
FORT CARSON    FAIR      59  11  14 W8        29.83R
LIMON          FAIR      52   7  16 NE13      29.83R
MONUMENT HILL  FAIR      45  18  33 NW8       29.93R
CANON CITY     FAIR      63  14  15 NW16G24   29.85R
WALSENBURG     FAIR      57   7  13 W20       29.90S
TRINIDAD       FAIR      60  11  14 NW17      29.86S
$$

COZ042>045-048>051-090-091-210100-
...NORTHEAST COLORADO...

CITY           SKY/WX    TMP DP  RH WIND       PRES   REMARKS
GREELEY ARPT   FAIR      61  12  14 SW14      29.81R
AKRON          FAIR      57  10  15 NW20      29.80S
BURLINGTON     FAIR      59   4  11 N7        29.80R
WRAY           NOT AVBL
YUMA           FAIR      55  -2   9 NW9       29.80R
STERLING       FAIR      55  18  22 N18       29.76R
HOLYOKE        FAIR      59  19  21 N13       29.79R
FORT MORGAN    FAIR      59   9  13 NW21G28   29.79S
$$

COZ086-089-092>099-210100-
...SOUTHEAST COLORADO...

CITY           SKY/WX    TMP DP  RH WIND       PRES   REMARKS
PUEBLO         FAIR      63  14  15 W10       29.79R
LA JUNTA       FAIR      54   8  16 SE8       29.78R
LAMAR          FAIR      54   6  14 W7        29.76R
SPRINGFIELD      N/A     50   8  18 W6        29.81R
$$




USA.gov is the U.S. government's official web portal to all federal, state and local government web resources and services.